EW5212 Weather Reports


time (UTC)temp
C
wind
direction
speed
KPH
gust
KPH
rain 1hr
cm
rain 24hr
cm
rain mn
cm
humidity
%
barometer
mb
20260831200035 33 45 1.6 3.2 0.00 0.00 0.00 63 1018.9
20260831195015 33 0.0 1.6 0.00 0.00 0.00 66 1019.0
20260831194015 33 45 1.6 3.2 0.00 0.00 0.00 62 1019.0
20260831193015 34 225 1.6 6.4 0.00 0.00 0.00 65 1019.1
20260831192015 33 338 1.6 3.2 0.00 0.00 0.00 65 1019.1
20260831191017 33 0.0 3.2 0.00 0.00 0.00 63 1019.1
20260831190017 33 0 1.6 1.6 0.00 0.00 0.00 67 1019.3
20260831185017 33 45 1.6 3.2 0.00 0.00 0.00 64 1019.4
20260831184017 33 0.0 3.2 0.00 0.00 0.00 65 1019.5
20260831183017 33 45 1.6 1.6 0.00 0.00 0.00 63 1019.5
20260831182017 33 0.0 1.6 0.00 0.00 0.00 66 1019.5
20260831181038 33 45 1.6 4.8 0.00 0.00 0.00 67 1019.6
20260831180037 33 0.0 3.2 0.00 0.00 0.00 68 1019.7
20260831175037 33 0.0 1.6 0.00 0.00 0.00 70 1019.7
20260831174017 32 0.0 1.6 0.00 0.00 0.00 67 1019.9
20260831173017 33 113 1.6 4.8 0.00 0.00 0.00 67 1019.9
20260831172018 33 23 1.6 3.2 0.00 0.00 0.00 68 1020.0
20260831171037 32 0.0 0.0 0.00 0.00 0.00 69 1020.1
20260831170017 32 0.0 1.6 0.00 0.00 0.00 68 1020.1
20260831165017 32 0.0 1.6 0.00 0.00 0.00 71 1020.1
20260831164015 32 45 1.6 1.6 0.00 0.00 0.00 71 1020.2
20260831163018 32 0.0 1.6 0.00 0.00 0.00 72 1020.4
20260831162017 31 68 1.6 3.2 0.00 0.00 0.00 72 1020.4
20260831161017 32 0.0 3.2 0.00 0.00 0.00 69 1020.5
20260831160037 31 0.0 1.6 0.00 0.00 0.00 73 1020.6
20260831155016 31 315 1.6 1.6 0.00 0.00 0.00 74 1020.4
20260831154017 31 293 1.6 3.2 0.00 0.00 0.00 74 1020.5
20260831153037 31 0.0 1.6 0.00 0.00 0.00 72 1020.5
20260831152017 31 90 1.6 4.8 0.00 0.00 0.00 73 1020.5
20260831151017 30 0.0 4.8 0.00 0.00 0.00 74 1020.5
20260831150017 30 0.0 3.2 0.00 0.00 0.00 76 1020.3
20260831145037 29 0.0 0.0 0.00 0.00 0.00 78 1020.3
20260831144037 29 0.0 0.0 0.00 0.00 0.00 80 1020.4
20260831143016 28 45 1.6 1.6 0.00 0.00 0.00 79 1020.4
20260831142017 28 45 1.6 4.8 0.00 0.00 0.00 80 1020.4
20260831141037 28 0.0 1.6 0.00 0.00 0.00 81 1020.4
20260831140017 28 293 1.6 3.2 0.00 0.00 0.00 82 1020.3
20260831135019 28 23 1.6 4.8 0.00 0.00 0.00 80 1020.4
20260831134017 27 23 1.6 6.4 0.00 0.00 0.00 80 1020.5
20260831133017 27 270 1.6 3.2 0.00 0.00 0.00 83 1020.4
20260831132017 27 0.0 3.2 0.00 0.00 0.00 85 1020.6
20260831131017 26 270 1.6 4.8 0.00 0.00 0.00 87 1020.4
20260831130057 26 248 1.6 4.8 0.00 0.00 0.00 87 1020.4
20260831125017 25 0.0 3.2 0.00 0.00 0.00 91 1020.3
20260831124016 24 248 1.6 6.4 0.00 0.00 0.00 92 1020.4
20260831123037 23 0.0 4.8 0.00 0.00 0.00 95 1020.5
20260831122017 22 0.0 4.8 0.00 0.00 0.00 97 1020.3
20260831121017 22 0.0 0.0 0.00 0.00 0.00 99 1020.2
20260831120017 22 0.0 1.6 0.00 0.00 0.00 100 1020.0
20260831115017 21 0.0 0.0 0.00 0.00 0.00 99 1020.0
20260831114016 21 0.0 0.0 0.00 0.00 0.00 99 1020.0
20260831113016 21 0.0 0.0 0.00 0.00 0.00 99 1020.0
20260831112016 21 0.0 0.0 0.00 0.00 0.00 98 1019.8
20260831111036 21 0.0 0.0 0.00 0.00 0.00 98 1019.7
20260831110016 21 0.0 0.0 0.00 0.00 0.00 98 1019.6
20260831105017 21 0.0 0.0 0.00 0.00 0.00 98 1019.6
20260831104017 21 0.0 0.0 0.00 0.00 0.00 98 1019.6
20260831103016 21 0.0 0.0 0.00 0.00 0.00 98 1019.5
20260831102016 21 0.0 0.0 0.00 0.00 0.00 98 1019.6
20260831101017 21 0.0 0.0 0.00 0.00 0.00 97 1019.5
20260831100056 21 0.0 0.0 0.00 0.00 0.00 97 1019.2
20260831095016 21 0.0 0.0 0.00 0.00 0.00 97 1019.3
20260831094016 22 0.0 0.0 0.00 0.00 0.00 97 1019.3
20260831093016 22 0.0 0.0 0.00 0.00 0.00 96 1019.3
20260831092016 22 0.0 0.0 0.00 0.00 0.00 96 1019.3
20260831091016 22 0.0 0.0 0.00 0.00 0.00 96 1019.3
20260831090016 22 0.0 0.0 0.00 0.00 0.00 95 1019.4
20260831085056 22 0.0 0.0 0.00 0.00 0.00 95 1019.3
20260831084016 23 0.0 0.0 0.00 0.00 0.00 94 1019.3
20260831083036 23 0.0 1.6 0.00 0.00 0.00 93 1019.4
20260831082016 23 0.0 0.0 0.00 0.00 0.00 92 1019.3
20260831081016 23 0.0 1.6 0.00 0.00 0.00 91 1019.3
20260831080016 23 0.0 4.8 0.00 0.00 0.00 91 1019.2
20260831075016 23 0.0 4.8 0.00 0.00 0.00 91 1019.1
20260831074016 23 0.0 1.6 0.00 0.00 0.00 90 1019.2
20260831073017 23 0.0 6.4 0.00 0.00 0.00 91 1019.3
20260831072016 23 0.0 3.2 0.00 0.00 0.00 91 1019.3
20260831071017 23 0.0 1.6 0.00 0.00 0.00 91 1019.4
20260831070016 23 0.0 3.2 0.00 0.00 0.00 91 1019.6
20260831065016 23 0.0 1.6 0.00 0.00 0.00 92 1019.4
20260831064016 23 0.0 1.6 0.00 0.00 0.00 93 1019.4
20260831063016 23 0.0 0.0 0.00 0.00 0.00 94 1019.5
20260831062016 22 0.0 1.6 0.00 0.00 0.00 95 1019.6
20260831061016 22 0.0 1.6 0.00 0.00 0.00 97 1019.6
20260831060016 22 0.0 0.0 0.00 0.00 0.00 97 1019.6
20260831055036 22 0.0 0.0 0.00 0.00 0.00 97 1019.8
20260831054036 22 0.0 0.0 0.00 0.00 0.00 97 1019.8
20260831053016 22 0.0 0.0 0.00 0.00 0.00 97 1019.9
20260831052017 22 0.0 0.0 0.00 0.00 0.00 97 1019.9
20260831051016 22 0.0 0.0 0.00 0.00 0.00 96 1020.0
20260831050016 22 0.0 0.0 0.00 0.00 0.00 96 1020.1
20260831045036 23 0.0 0.0 0.00 0.00 0.00 96 1020.1
20260831044016 23 0.0 0.0 0.00 0.00 0.00 96 1020.1
20260831043016 23 0.0 0.0 0.00 0.00 0.00 96 1020.2
20260831042016 23 0.0 0.0 0.00 0.00 0.00 96 1020.2
20260831041016 23 0.0 0.0 0.00 0.00 0.00 96 1020.2
20260831040016 23 0.0 0.0 0.00 0.00 0.00 96 1020.2
20260831035015 23 0.0 0.0 0.00 0.00 0.00 96 1020.1
20260831034016 23 0.0 0.0 0.00 0.00 0.00 97 1020.3
20260831033016 23 0.0 0.0 0.00 0.00 0.00 97 1020.4
20260831032016 23 0.0 0.0 0.00 0.00 0.00 97 1020.4
20260831031016 23 0.0 0.0 0.00 0.00 0.00 96 1020.5
20260831030016 23 0.0 0.0 0.00 0.00 0.00 96 1020.6
20260831025015 23 0.0 0.0 0.00 0.00 0.00 96 1020.6
20260831024016 23 0.0 0.0 0.00 0.00 0.00 97 1020.7
20260831023036 23 0.0 0.0 0.00 0.00 0.00 96 1020.7
20260831022016 23 0.0 0.0 0.00 0.00 0.00 96 1020.7
20260831021016 23 0.0 0.0 0.00 0.00 0.00 96 1020.6
20260831020016 23 0.0 0.0 0.00 0.00 0.00 96 1020.6
20260831015037 23 0.0 0.0 0.00 0.00 0.00 96 1020.7
20260831014016 23 0.0 0.0 0.00 0.00 0.00 95 1020.7
20260831013017 23 0.0 0.0 0.00 0.00 0.00 95 1020.6
20260831012016 23 0.0 0.0 0.00 0.00 0.00 94 1020.7
20260831011016 23 0.0 0.0 0.00 0.00 0.00 94 1020.7
20260831010036 23 0.0 0.0 0.00 0.00 0.00 94 1020.6
20260831005016 24 0.0 0.0 0.00 0.00 0.00 92 1020.5
20260831004036 24 0.0 0.0 0.00 0.00 0.00 92 1020.1
20260831003016 25 0.0 0.0 0.00 0.00 0.00 90 1019.8
20260831002016 25 0.0 0.0 0.00 0.00 0.00 90 1019.7
20260831001015 25 0.0 0.0 0.00 0.00 0.00 88 1019.6
20260831000036 26 0.0 0.0 0.00 0.00 0.00 87 1019.7
20260830235015 26 0.0 0.0 0.00 0.00 0.00 86 1019.6
20260830234016 27 0.0 0.0 0.00 0.00 0.00 83 1019.7
20260830233015 28 0.0 0.0 0.00 0.00 0.00 80 1019.9
20260830232015 29 0.0 1.6 0.00 0.00 0.00 76 1020.1
20260830231016 30 0.0 3.2 0.00 0.00 0.00 70 1019.8
20260830230015 31 0.0 1.6 0.00 0.00 0.00 71 1019.9
20260830225015 32 0.0 0.0 0.00 0.00 0.00 67 1019.8
20260830224015 32 0.0 3.2 0.00 0.00 0.00 67 1019.8
20260830223037 32 270 3.2 6.4 0.00 0.00 0.00 64 1019.8
20260830222016 32 293 1.6 8.0 0.00 0.00 0.00 63 1019.8
20260830221015 32 270 1.6 9.7 0.00 0.00 0.00 65 1019.9
20260830220015 33 270 1.6 3.2 0.00 0.00 0.00 62 1019.9
20260830215015 33 0.0 3.2 0.00 0.00 0.00 64 1019.8
20260830214015 33 0.0 3.2 0.00 0.00 0.00 62 1019.8
20260830213016 32 270 1.6 6.4 0.00 0.00 0.00 62 1019.8
20260830212015 32 293 1.6 4.8 0.00 0.00 0.00 63 1019.6
20260830211015 33 0.0 3.2 0.00 0.00 0.00 65 1019.6
20260830210016 32 293 1.6 4.8 0.00 0.00 0.00 64 1019.6
20260830205015 32 270 1.6 4.8 0.00 0.00 0.00 64 1019.7
20260830204015 33 270 1.6 6.4 0.00 0.00 0.00 63 1019.8
20260830203016 32 338 1.6 4.8 0.00 0.00 0.00 63 1019.9
20260830202015 32 113 1.6 6.4 0.00 0.00 0.00 64 1020.1
20260830201015 32 270 3.2 11.3 0.00 0.00 0.00 67 1020.0